This demonstration page uses our WeatherBlox Daily Observations layout. Learn more.

Left ArrowRight Arrow

Hourly Observations for November 10, 2016

Temp ( °F °C ) Dew Point ( °F °C ) Humidity (%) Winds ( mph kmh ) Pressure ( in mb ) Visibility ( mi km ) Precip ( " mm )
12:15 am 00:15 Clear 39 3.8 32 0.2 78 78 SW 9 15 30.27 1025 10 16 N/A
12:35 am 00:35 Clear 38 3.3 32 undefined 79 79 SW 8 13 30.27 1025 10 16 N/A
12:55 am 00:55 Clear 39 4.1 32 -0.1 74 74 SW 10 17 30.27 1025 10 16 N/A
1:15 am 01:15 Clear 39 4.1 31 -0.5 72 72 SW 6 9 30.27 1025 10 16 N/A
1:35 am 01:35 Clear 42 5.4 31 -0.5 66 66 SW 8 13 30.24 1024 10 16 N/A
1:55 am 01:55 Clear 41 4.8 30 -0.9 67 67 SW 8 13 30.24 1024 10 16 N/A
2:15 am 02:15 Clear 42 5.3 30 -1 64 64 SW 8 13 30.24 1024 10 16 N/A
2:35 am 02:35 Clear 42 5.5 30 -1.1 63 63 SW 7 11 30.24 1024 10 16 N/A
2:55 am 02:55 Clear 42 5.6 29 -1.4 61 61 WSW 9 15 30.24 1024 10 16 N/A
3:15 am 03:15 Clear 42 5.6 29 -1.8 59 59 SW 9 15 30.21 1023 10 16 N/A
3:35 am 03:35 Clear 40 4.7 28 -2 62 62 SW 9 15 30.21 1023 10 16 N/A
3:55 am 03:55 Clear 38 3.6 28 -2 67 67 SW 7 11 30.24 1024 10 16 N/A
4:15 am 04:15 Clear 38 3.2 28 -2 69 69 SW 8 13 30.21 1023 10 16 N/A
4:35 am 04:35 Clear 37 2.8 28 -2.2 70 70 SSW 8 13 30.21 1023 10 16 N/A
4:55 am 04:55 Clear 37 2.5 28 -2.5 70 70 SSW 6 9 30.21 1023 10 16 N/A
5:15 am 05:15 Clear 35 1.6 28 -2.5 74 74 SSW 7 11 30.21 1023 10 16 N/A
5:35 am 05:35 Clear 35 1.5 27 -2.6 74 74 SSW 3 6 30.21 1023 10 16 N/A
5:55 am 05:55 Clear 34 1.1 27 -2.7 76 76 SSW 6 9 30.21 1023 10 16 N/A
6:15 am 06:15 Clear 34 1 27 -2.6 77 77 SSW 6 9 30.21 1023 10 16 N/A
6:35 am 06:35 Clear 33 0.3 27 -2.8 80 80 SW 3 6 30.24 1024 10 16 N/A
6:55 am 06:55 Clear 32 0.1 27 -2.8 81 81 SSW 6 9 30.24 1024 10 16 N/A
7:15 am 07:15 Clear 32 -0.2 27 -2.9 82 82 SSW 8 13 30.24 1024 10 16 N/A
7:35 am 07:35 Sunny 32 -0.1 26 -3.1 80 80 SW 5 7 30.24 1024 10 16 N/A
7:55 am 07:55 Sunny 32 undefined 27 -2.9 81 81 SW 8 13 30.24 1024 10 16 N/A
8:15 am 08:15 Sunny 34 1 28 -2.5 78 78 SW 7 11 30.21 1023 10 16 N/A
8:35 am 08:35 Sunny 36 2.3 28 -2.2 72 72 SW 8 13 30.21 1023 10 16 N/A
8:55 am 08:55 Sunny 38 3.4 29 -1.7 70 70 WSW 6 9 30.21 1023 10 16 N/A
9:15 am 09:15 Sunny 41 5.1 28 -2.1 60 60 WSW 7 11 30.18 1022 10 16 N/A
9:35 am 09:35 Sunny 44 6.6 29 -1.8 55 55 WSW 6 9 30.18 1022 10 16 N/A
9:55 am 09:55 Sunny 45 7.4 30 -1 56 56 W 9 15 30.15 1021 10 16 N/A
10:15 am 10:15 Sunny 48 9.1 32 undefined 53 53 WNW 8 13 30.15 1021 10 16 N/A
10:35 am 10:35 Sunny 53 11.9 34 1.1 48 48 W 6 9 30.12 1020 10 16 N/A
10:55 am 10:55 Sunny 57 13.8 34 1.1 42 42 WNW 6 9 30.09 1019 10 16 N/A
11:15 am 11:15 Sunny 60 15.5 35 1.9 40 40 W 6 9 30.09 1019 10 16 N/A
11:35 am 11:35 Sunny 63 17.2 32 undefined 31 31 NW 8 13 30.06 1018 10 16 N/A
11:55 am 11:55 Sunny 64 18 33 0.7 31 31 NW 9 15 30.06 1018 10 16 N/A
12:15 pm 12:15 Sunny 65 18.5 33 0.5 30 30 NNW 8 13 30.06 1018 10 16 N/A
12:35 pm 12:35 Sunny 67 19.2 33 0.5 29 29 NNW 7 11 30.06 1018 10 16 N/A
12:55 pm 12:55 Sunny 68 19.8 33 0.8 28 28 NNW 6 9 30.06 1018 10 16 N/A
1:15 pm 13:15 Sunny 69 20.6 34 1 27 27 NNW 6 9 30.06 1018 10 16 N/A
1:35 pm 13:35 Sunny 71 21.5 35 1.6 27 27 NNW 6 9 30.03 1017 10 16 N/A
1:55 pm 13:55 Sunny 72 22.4 35 1.6 25 25 N 6 9 30.03 1017 10 16 N/A
2:15 pm 14:15 Sunny 74 23.3 35 1.5 24 24 N 10 17 30.03 1017 10 16 N/A
2:35 pm 14:35 Sunny 75 23.8 33 0.8 22 22 N 8 13 30.03 1017 10 16 N/A
2:55 pm 14:55 Sunny 75 24 32 undefined 21 21 N 14 22 30.03 1017 10 16 N/A
3:15 pm 15:15 Sunny 75 23.7 33 0.6 22 22 N 12 19 30.03 1017 10 16 N/A
3:35 pm 15:35 Sunny 74 23.5 35 1.4 23 23 N 13 20 30.03 1017 10 16 N/A
3:55 pm 15:55 Sunny 73 23 36 2.3 26 26 N 9 15 30.03 1017 10 16 N/A
4:15 pm 16:15 Sunny 72 22.3 37 3 28 28 N 10 17 30.03 1017 10 16 N/A
4:35 pm 16:35 Sunny 70 21.1 37 3 30 30 N 10 17 30.03 1017 10 16 N/A
4:55 pm 16:55 Sunny 67 19.7 38 3.6 35 35 N 12 19 30.09 1019 10 16 N/A
5:15 pm 17:15 Sunny 63 17.1 40 4.2 43 43 N 9 15 30.12 1020 10 16 N/A
5:35 pm 17:35 Clear 59 15.1 40 4.3 49 49 N 9 15 30.15 1021 10 16 N/A
5:55 pm 17:55 Clear 55 13 40 4.3 56 56 N 10 17 30.18 1022 10 16 N/A
6:15 pm 18:15 Clear 55 12.7 39 4.1 56 56 N 10 17 30.21 1023 10 16 N/A
6:35 pm 18:35 Clear 54 12.1 40 4.3 59 59 N 10 17 30.21 1023 10 16 N/A
6:55 pm 18:55 Clear 52 11.2 39 4 61 61 N 8 13 30.24 1024 10 16 N/A
7:15 pm 19:15 Clear 51 10.4 39 3.7 63 63 N 9 15 30.24 1024 10 16 N/A
7:35 pm 19:35 Clear 52 11.2 39 3.8 61 61 N 10 17 30.27 1025 10 16 N/A
7:55 pm 19:55 Clear 51 10.8 39 3.7 62 62 N 8 13 30.27 1025 10 16 N/A
8:15 pm 20:15 Clear 51 10.6 38 3.3 61 61 N 9 15 30.27 1025 10 16 N/A
8:35 pm 20:35 Clear 49 9.3 38 3.2 66 66 N 8 13 30.27 1025 10 16 N/A
8:55 pm 20:55 Clear 49 9.3 38 3.5 67 67 N 10 17 30.30 1026 10 16 N/A
9:15 pm 21:15 Clear 49 9.4 38 3.6 67 67 N 9 15 30.30 1026 10 16 N/A
9:35 pm 21:35 Clear 49 9.2 39 3.7 69 69 N 9 15 30.30 1026 10 16 N/A
9:55 pm 21:55 Clear 49 9.5 39 4 69 69 N 10 17 30.33 1027 10 16 N/A
10:15 pm 22:15 Clear 49 9.5 39 4 69 69 NNE 12 19 30.33 1027 10 16 N/A
10:35 pm 22:35 Clear 49 9.5 39 4 69 69 NNE 14 22 30.33 1027 10 16 N/A
10:55 pm 22:55 Clear 49 9.2 39 4 70 70 NNE 14 22 30.33 1027 10 16 N/A
11:15 pm 23:15 Clear 48 8.7 39 3.8 72 72 NNE 12 19 30.36 1028 10 16 N/A
11:35 pm 23:35 Clear 47 8.5 39 3.7 72 72 NNE 13 20 30.36 1028 10 16 N/A
11:55 pm 23:55 Clear 46 8 38 3.5 74 74 N 12 19 30.36 1028 10 16 N/A

Powered by AerisWeather